User: anonymous   Login
Location: Indian Springs
(36.5700°N, 115.6700°W)
Time: 23:16:30
(UTC-07:00)
Language:

Cosmos 2278 Rocket - Orbit

View from above orbital plane
View from above orbital plane
View from above satellite
View from above satellite

Ground track
Ground track

The orbit data is extracted from the following two-line orbital elements,

1 23088U 94023B   17080.52241764 +.00000182 +00000-0 +11929-3 0  9992
2 23088 070.9986 106.0515 0005355 247.9942 112.0612 14.14655610182877
Epoch (UTC): 21 March 2017 12:32:16
Eccentricity: 0.0005355
inclination: 70.9986°
perigee height: 839 km
apogee height: 847 km
right ascension of ascending node: 106.0515°
argument of perigee: 247.9942°
revolutions per day: 14.14655610
mean anomaly at epoch: 112.0612°
orbit number at epoch: 18287

The dashed part of the orbit path shows where the satellite is in the earth's shadow,  

DLR